• In Romania
  • List of Countries
  • For 7 days
  • Water Temperature
  • Satellite Maps
  • Weather Map
  • Weather Widgets
  • user-avatar
    Login

    Hourly Weather Hobart

    Today, 18 November, Saturday

    Time Temperature Precipitation Wind Pressure Humidity
    00:00 +13°C° 0 mm 3 mps 752 mmHg 96%
    01:00 +12°C° 0 mm 3 mps 752 mmHg 97%
    02:00 +12°C° 0 mm 3 mps 752 mmHg 98%
    03:00 +12°C° 0 mm 3 mps 752 mmHg 98%
    04:00 +12°C° 0 mm 3 mps 752 mmHg 98%
    05:00 +14°C° 0 mm 3 mps 752 mmHg 91%
    06:00 +16°C° 0 mm 3 mps 753 mmHg 84%
    07:00 +18°C° 0 mm 4 mps 753 mmHg 77%
    08:00 +20°C° 0 mm 4 mps 753 mmHg 69%
    09:00 +21°C° 0 mm 4 mps 753 mmHg 61%
    10:00 +23°C° 0 mm 4 mps 753 mmHg 53%
    11:00 +25°C° 0 mm 4 mps 753 mmHg 51%
    12:00 +26°C° 0 mm 5 mps 753 mmHg 48%
    13:00 +27°C° 0 mm 5 mps 753 mmHg 46%
    14:00 +27°C° 0 mm 5 mps 752 mmHg 48%
    15:00 +27°C° 0 mm 5 mps 752 mmHg 50%
    16:00 +26°C° 0 mm 5 mps 752 mmHg 52%
    17:00 +25°C° 0.1 mm 5 mps 752 mmHg 60%
    18:00 +22°C° 0.1 mm 4 mps 753 mmHg 67%
    19:00 +20°C° 0.1 mm 4 mps 753 mmHg 75%
    20:00 +19°C° 0 mm 4 mps 753 mmHg 81%
    21:00 +17°C° 0 mm 4 mps 753 mmHg 87%
    22:00 +16°C° 0 mm 3 mps 754 mmHg 93%
    23:00 +16°C° 0 mm 3 mps 753 mmHg 94%

    Tomorrow, 19 November, Sunday

    Time Temperature Precipitation Wind Pressure Humidity
    00:00 +14°C° 0 mm 3 mps 753 mmHg 95%
    01:00 +14°C° 0 mm 3 mps 753 mmHg 96%
    02:00 +13°C° 0 mm 3 mps 753 mmHg 96%
    03:00 +14°C° 0 mm 2 mps 753 mmHg 96%
    04:00 +14°C° 0 mm 2 mps 754 mmHg 96%
    05:00 +16°C° 0 mm 2 mps 754 mmHg 89%
    06:00 +18°C° 0 mm 2 mps 754 mmHg 81%
    07:00 +19°C° 0 mm 2 mps 755 mmHg 73%
    08:00 +23°C° 0 mm 2 mps 755 mmHg 64%
    09:00 +25°C° 0 mm 2 mps 755 mmHg 55%
    10:00 +27°C° 0 mm 2 mps 755 mmHg 45%
    11:00 +28°C° 0 mm 2 mps 755 mmHg 43%
    12:00 +29°C° 0 mm 2 mps 754 mmHg 41%
    13:00 +30°C° 0 mm 3 mps 754 mmHg 38%
    14:00 +29°C° 0 mm 3 mps 754 mmHg 40%
    15:00 +28°C° 0 mm 3 mps 754 mmHg 42%
    16:00 +28°C° 0 mm 3 mps 754 mmHg 44%
    17:00 +26°C° 0 mm 3 mps 754 mmHg 52%
    18:00 +24°C° 0 mm 2 mps 754 mmHg 60%
    19:00 +21°C° 0 mm 2 mps 754 mmHg 68%
    20:00 +19°C° 0 mm 2 mps 755 mmHg 74%
    21:00 +18°C° 0 mm 1 mps 755 mmHg 80%
    22:00 +16°C° 0 mm 1 mps 755 mmHg 86%
    23:00 +16°C° 0 mm 1 mps 755 mmHg 86%

    Day after tomorrow, 20 November, Monday

    Time Temperature Precipitation Wind Pressure Humidity
    00:00 +15°C° 0 mm 1 mps 755 mmHg 87%
    01:00 +15°C° 0 mm 1 mps 755 mmHg 87%
    02:00 +15°C° 0 mm 2 mps 755 mmHg 88%
    03:00 +15°C° 0 mm 2 mps 755 mmHg 89%
    04:00 +14°C° 0 mm 2 mps 755 mmHg 91%
    05:00 +16°C° 0 mm 2 mps 755 mmHg 82%
    06:00 +18°C° 0 mm 2 mps 756 mmHg 73%
    07:00 +21°C° 0 mm 2 mps 756 mmHg 64%
    08:00 +24°C° 0 mm 2 mps 756 mmHg 53%
    09:00 +26°C° 0 mm 2 mps 756 mmHg 43%
    10:00 +29°C° 0 mm 3 mps 756 mmHg 32%
    11:00 +30°C° 0 mm 3 mps 756 mmHg 30%
    12:00 +30°C° 0 mm 3 mps 755 mmHg 27%
    13:00 +32°C° 0 mm 4 mps 755 mmHg 25%
    14:00 +32°C° 0 mm 4 mps 755 mmHg 27%
    15:00 +30°C° 0 mm 4 mps 754 mmHg 29%
    16:00 +29°C° 0 mm 5 mps 754 mmHg 31%
    17:00 +27°C° 0 mm 4 mps 754 mmHg 41%
    18:00 +23°C° 0 mm 4 mps 754 mmHg 51%
    19:00 +21°C° 0 mm 3 mps 754 mmHg 61%
    20:00 +20°C° 0 mm 3 mps 755 mmHg 66%
    21:00 +18°C° 0 mm 3 mps 755 mmHg 71%
    22:00 +17°C° 0 mm 3 mps 755 mmHg 76%
    23:00 +16°C° 0 mm 3 mps 755 mmHg 78%

    21 November, Tuesday

    Time Temperature Precipitation Wind Pressure Humidity
    00:00 +16°C° 0 mm 3 mps 754 mmHg 81%
    01:00 +14°C° 0 mm 3 mps 754 mmHg 83%
    02:00 +14°C° 0 mm 3 mps 754 mmHg 84%
    03:00 +13°C° 0 mm 3 mps 754 mmHg 85%
    04:00 +13°C° 0 mm 3 mps 754 mmHg 86%
    05:00 +16°C° 0 mm 3 mps 754 mmHg 78%
    06:00 +18°C° 0 mm 3 mps 754 mmHg 70%
    07:00 +20°C° 0 mm 3 mps 754 mmHg 62%
    08:00 +22°C° 0 mm 3 mps 754 mmHg 51%
    09:00 +26°C° 0 mm 3 mps 754 mmHg 41%
    10:00 +29°C° 0 mm 3 mps 754 mmHg 31%
    11:00 +30°C° 0 mm 3 mps 753 mmHg 28%
    12:00 +32°C° 0 mm 4 mps 753 mmHg 24%
    13:00 +33°C° 0 mm 4 mps 753 mmHg 20%
    14:00 +33°C° 0 mm 4 mps 752 mmHg 22%
    15:00 +32°C° 0 mm 4 mps 752 mmHg 24%
    16:00 +32°C° 0 mm 5 mps 752 mmHg 25%
    17:00 +29°C° 0 mm 4 mps 752 mmHg 35%
    18:00 +26°C° 0 mm 4 mps 752 mmHg 46%
    19:00 +23°C° 0 mm 4 mps 752 mmHg 56%
    20:00 +21°C° 0 mm 3 mps 752 mmHg 62%
    21:00 +19°C° 0 mm 3 mps 752 mmHg 69%
    22:00 +18°C° 0 mm 2 mps 752 mmHg 76%
    23:00 +17°C° 0 mm 3 mps 751 mmHg 77%

    22 November, Wednesday

    Time Temperature Precipitation Wind Pressure Humidity
    00:00 +17°C° 0 mm 3 mps 751 mmHg 78%
    01:00 +16°C° 0 mm 3 mps 751 mmHg 79%
    02:00 +16°C° 0 mm 3 mps 751 mmHg 79%
    03:00 +16°C° 0 mm 3 mps 750 mmHg 79%
    04:00 +14°C° 0 mm 3 mps 750 mmHg 79%
    05:00 +17°C° 0 mm 2 mps 750 mmHg 71%
    06:00 +19°C° 0 mm 2 mps 751 mmHg 62%
    07:00 +21°C° 0 mm 2 mps 751 mmHg 54%
    08:00 +25°C° 0 mm 2 mps 751 mmHg 45%
    09:00 +28°C° 0 mm 2 mps 750 mmHg 36%
    10:00 +31°C° 0 mm 2 mps 750 mmHg 27%
    11:00 +33°C° 0 mm 3 mps 750 mmHg 25%
    12:00 +34°C° 0 mm 3 mps 750 mmHg 23%
    13:00 +35°C° 0 mm 3 mps 750 mmHg 22%
    14:00 +33°C° 0 mm 3 mps 749 mmHg 29%
    15:00 +29°C° 0 mm 3 mps 749 mmHg 35%
    16:00 +27°C° 0 mm 3 mps 749 mmHg 42%
    17:00 +26°C° 0 mm 3 mps 749 mmHg 49%
    18:00 +24°C° 0 mm 3 mps 749 mmHg 55%
    19:00 +23°C° 0 mm 2 mps 749 mmHg 62%
    20:00 +20°C° 0 mm 2 mps 750 mmHg 65%
    21:00 +19°C° 0 mm 2 mps 750 mmHg 68%
    22:00 +18°C° 0 mm 2 mps 750 mmHg 71%
    23:00 +17°C° 0 mm 2 mps 750 mmHg 72%

    23 November, Thursday

    Time Temperature Precipitation Wind Pressure Humidity
    00:00 +17°C° 0 mm 2 mps 749 mmHg 72%
    01:00 +17°C° 0 mm 2 mps 749 mmHg 72%
    02:00 +17°C° 0 mm 2 mps 749 mmHg 72%
    03:00 +17°C° 0 mm 2 mps 749 mmHg 72%
    04:00 +17°C° 0 mm 2 mps 749 mmHg 73%
    05:00 +18°C° 0 mm 2 mps 749 mmHg 67%
    06:00 +20°C° 0 mm 2 mps 749 mmHg 61%
    07:00 +23°C° 0 mm 1 mps 750 mmHg 55%
    08:00 +25°C° 0 mm 2 mps 750 mmHg 50%
    09:00 +27°C° 0 mm 2 mps 750 mmHg 44%
    10:00 +29°C° 0 mm 3 mps 750 mmHg 39%
    11:00 +29°C° 0 mm 3 mps 749 mmHg 40%
    12:00 +28°C° 0 mm 3 mps 749 mmHg 42%
    13:00 +28°C° 0 mm 3 mps 749 mmHg 44%
    14:00 +27°C° 0.1 mm 3 mps 749 mmHg 48%
    15:00 +26°C° 0.1 mm 3 mps 749 mmHg 52%
    16:00 +25°C° 0.1 mm 3 mps 749 mmHg 56%
    17:00 +23°C° 0.4 mm 2 mps 749 mmHg 64%
    18:00 +20°C° 0.4 mm 2 mps 749 mmHg 72%
    19:00 +18°C° 0.4 mm 2 mps 750 mmHg 80%
    20:00 +18°C° 0.2 mm 1 mps 750 mmHg 85%
    21:00 +16°C° 0.2 mm 1 mps 750 mmHg 89%
    22:00 +15°C° 0.2 mm 1 mps 750 mmHg 94%
    23:00 +15°C° 0 mm 1 mps 750 mmHg 95%
    Show more